< < Back
Terminal Aerodrome Forecast


Current Version              Previous Versions:   1  2  3  4  5  6  7  8  9  

Terminal Aerodrome Forecast

762
FTUS42 KILM 181100
TAFFLO
TAF
KFLO 181121Z 1812/1912 04012KT P6SM BKN060 BKN140
     FM182000 04013KT 6SM -RA BKN030 OVC050
     FM182200 03012KT 4SM RA BR BKN025 OVC045
     FM190300 04011KT 2SM RA BR BKN006 OVC025=

Latest METAR

567
SAUS70 KWBC 182300 RRA
MTRFLO
METAR KFLO 182253Z 05006KT 5SM RA BR OVC022 14/12 A3020 RMK AO2 SLP225
P0007 T01390117


USA.gov is the U.S. government's official web portal to all federal, state and local government web resources and services.